sat.trackr.live / text

‹ back to catalog

VIASAT-1

NORAD 37843 · 2011-059A

PAYLOAD ACTIVE UNKNOWN

§ Identity

Operator
Country
US
Launch date
2011-10-19
Launch site
TYMSC
Launch vehicle
Mass (kg)
RCS (m²)
3.98

Purposes: comms

External: N2YO · Heavens-Above · Gunter

§ Orbital elements

Epoch: 2026-09-13T02:35:10.391424Z

Period
1,436.12 min
Inclination
0.0176°
Eccentricity
0.0002360
Mean motion
1.00270503 rev/d
Perigee alt
35,777.0 km
Apogee alt
35,796.9 km
Semi-major
42,165.1 km
B*
0.0000e+0
RAAN
198.6871°
Arg perigee
326.4383°
Mean anomaly
110.6695°
Rev number
4,820

§ Raw data

VIASAT-11 37843U 11059A   26256.10775916 -.00000035  00000+0  00000+0 0  99952 37843   0.0176 198.6871 0002360 326.4383 110.6695  1.00270503 48201

JSON: /api/v1/satellites/37843 · /tle

For live sub-satellite position, see the globe view (requires WebGL).

§ Visibility from observer

Set your observer location to see the next 7 days of passes ≥ 10°. The values pass through the URL so the page stays shareable.

No JS? Fill the form by hand. The geolocation button needs JavaScript.